Regional Weather Roundup
Issued by NWS

Home | Current Version | Previous Version | Text Only | Print | Product List | Glossary Off
Versions: 1 2 3 4 5 6 7 8 9 10 11 12 13 14 15 16 17 18 19 20 21 22 23 24 25 26 27 28 29 30 31 32 33 34 35 36 37 38 39 40 41 42 43 44 45 46 47 48 49 50

000
ASUS43 KOAX 300502
RWRNE

WEATHER ROUNDUP FOR NEBRASKA
NATIONAL WEATHER SERVICE OMAHA NE
1200 AM CDT THU OCT 30 2014

NOTES: SATELLITE DATA IS BEING USED TO AUGMENT CLOUD COVER ABOVE
       12000 FEET.
       "FAIR" INDICATES FEW OR NO CLOUDS BELOW 12,000 FEET WITH NO
       SIGNIFICANT WEATHER AND/OR OBSTRUCTIONS TO VISIBILITY.

  * THESE STATIONS DO NOT REPORT WEATHER SUCH AS RAIN...SNOW OR FOG.

NEZ001>004-019>022-054>056-300600-
NEBRASKA PANHANDLE

CITY           SKY/WX    TMP DP  RH WIND       PRES   REMARKS
SCOTTSBLUFF    MOCLDY    43  30  60 NW7       30.17R
ALLIANCE       CLEAR     33  25  72 W5        30.13R WCI  29
CHADRON        MOCLDY    41  30  65 SW13      30.13R
KIMBALL        PTCLDY    37  26  66 NW8       30.16R WCI  30
SIDNEY         PTCLDY    39  25  57 NW10      30.16R WCI  32
$$

NEZ057>060-069>072-079>082-300600-
SOUTHWEST NEBRASKA

CITY           SKY/WX    TMP DP  RH WIND       PRES   REMARKS
NORTH PLATTE   CLEAR     53  24  32 N14       30.04R
IMPERIAL       CLEAR     47  23  38 N12       30.09R
LEXINGTON      MOCLDY    47  36  65 NW5       30.00F
MCCOOK         PTCLDY    53  25  33 NW14      30.02R
OGALLALA       PTCLDY    53  28  38 N7        30.09R
$$

NEZ005>010-023>029-035>040-094-300600-
NORTH CENTRAL NEBRASKA

CITY           SKY/WX    TMP DP  RH WIND       PRES   REMARKS
VALENTINE      CLEAR     42  26  53 NW10      30.04S
AINSWORTH      CLEAR     43  27  53 W7        30.03S
BROKEN BOW     MOCLDY    45  33  63 N7        30.02R
O`NEILL        MOCLDY    45  35  68 SW6       30.01S
ORD            CLOUDY    44  34  67 NW10      30.03R
THEDFORD       CLEAR     46  26  45 W3        30.06R
$$

NEZ041-046>049-061>064-073>077-083>087-300600-
SOUTH CENTRAL NEBRASKA

CITY           SKY/WX    TMP DP  RH WIND       PRES   REMARKS
GRAND ISLAND   MOCLDY    50  35  56 CALM      29.99S
AURORA         MOCLDY    45  33  62 SE6       29.99S
HASTINGS       MOCLDY    47  35  63 SE6       29.97F
HEBRON         MOCLDY    49  37  61 CALM      29.99F
HOLDREGE       MOCLDY    46  36  68 CALM      29.97F
KEARNEY *      MOCLDY    45  36  70 N3        29.99R
YORK           PTCLDY    46  36  66 SE9       29.99F
$$

NEZ011>018-030>034-042>045-300600-
NORTHEAST NEBRASKA

CITY           SKY/WX    TMP DP  RH WIND       PRES   REMARKS
NORFOLK        CLOUDY    46  36  68 S6        30.02F
ALBION         CLOUDY    46  33  60 CALM      30.03R
BLAIR          PTCLDY    46  32  58 SE5       30.04F
COLUMBUS *       N/A    N/A N/A N/A MISG        N/A
FREMONT        MOCLDY    48  34  58 SE8       30.04F
TEKAMAH        MOCLDY    41  32  70 S5        30.05F
WAYNE          CLOUDY    46  33  62 S6        30.03F
$$

NEZ050>053-065>068-078-088>093-300600-
SOUTHEAST NEBRASKA

CITY           SKY/WX    TMP DP  RH WIND       PRES   REMARKS
LINCOLN        CLEAR     44  33  65 CALM      30.03F
OMAHA EPPLEY   PTCLDY    44  31  60 SE7       30.07F
BEATRICE       CLEAR     48  36  62 SE8       30.00F
FALLS CITY     PTCLDY    43  35  73 SE6       30.04F
NEBRASKA CITY  CLEAR     45  29  55 SE3       30.04F
PLATTSMOUTH    PTCLDY    44  31  60 E7        30.05F
$$

NEZ044-045-051>053-067-300600-
OMAHA AREA

CITY           SKY/WX    TMP DP  RH WIND       PRES   REMARKS
OMAHA EPPLEY   PTCLDY    44  31  60 SE7       30.07F
BLAIR          PTCLDY    46  32  58 SE5       30.04F
FREMONT        MOCLDY    48  34  58 SE8       30.04F
MILLARD        PTCLDY    43  34  69 SE3       30.05F
OFFUTT AFB     PTCLDY    46  30  53 E6        30.05F
PLATTSMOUTH    PTCLDY    44  31  60 E7        30.05F
WAHOO          FAIR      41  33  73 E7        30.03F
$$



USA.gov is the U.S. government's official web portal to all federal, state and local government web resources and services.